Location: Broome Tank
(34.3245°N, 106.4677°W)
Time: 22:16:42
(UTC+00:00)

Daily predictions for brighter satellites

Satellite Brightness Start Highest point End
(mag) Time Altitude Azimuth Time Altitude Azimuth Time Altitude Azimuth
Cosmos 1400 Rocket 4.2 12:04:03 10° SSE 12:07:32 37° E 12:11:03 10° NNE
Cosmos 773 Rocket 3.9 12:05:13 14° NNW 12:09:41 87° WSW 12:14:50 10° SSE
Cosmos 1908 Rocket 3.6 12:07:41 10° S 12:12:00 79° E 12:16:22 10° N
Cosmos 2208 Rocket 4.0 12:08:40 10° NNW 12:14:07 86° WSW 12:19:33 10° SSE
SL-16 R/B 4.1 12:09:20 10° SSE 12:14:10 30° ESE 12:19:01 10° NE
Cosmos 1812 3.6 12:13:28 12° SSE 12:15:17 28° E 12:17:24 10° NNE
CZ-4 R/B 4.3 12:11:49 10° NNE 12:16:47 66° ESE 12:21:40 10° S
Cosmos 2227 Rocket 2.2 12:20:24 15° NNW 12:25:05 60° WSW 12:30:38 10° S
Cosmos 2333 Rocket 4.3 12:21:20 10° SSE 12:26:15 30° ESE 12:31:08 10° NE
COSMOS 2455 3.7 12:27:33 26° WNW 12:28:02 27° NW 12:33:04 10° N
Cosmos 1354 Rocket 3.9 12:23:44 10° SSW 12:28:52 62° WNW 12:34:03 10° N
Cosmos 1378 Rocket 4.0 12:31:47 34° W 12:31:50 34° W 12:35:43 10° SSW
Cosmos 2123 Rocket 4.2 12:26:11 10° NNW 12:31:59 43° W 12:37:44 10° SSW
Cosmos 1869 3.9 12:30:38 10° S 12:34:05 50° E 12:37:31 10° NNE
BREEZE-M DEB (TANK) 4.1 12:35:10 22° SSW 12:35:10 22° SSW 12:37:22 10° SSE
Cosmos 2221 Rocket 3.5 12:32:02 10° N 12:36:34 86° W 12:41:03 10° S
BREEZE-M DEB (TANK) 4.2 12:37:35 10° S 12:39:34 27° SE 12:42:41 10° ENE
Cosmos 1025 Rocket 3.0 12:35:41 10° NNW 12:39:56 55° W 12:44:09 10° S
NOSS 3-1 (C) 3.9 12:39:19 23° WNW 12:40:03 24° NW 12:44:15 10° N
Cosmos 990 Rocket 4.1 12:36:14 10° SW 12:41:16 51° WNW 12:46:23 10° N
Cosmos 2322 Rocket 4.3 12:39:49 10° SSE 12:44:40 30° ESE 12:49:31 10° NE
SL-4 R/B 2.8 12:42:28 14° NNW 12:45:16 42° NE 12:48:52 10° ESE
NOSS 3-1 (A) 2.8 12:42:44 10° SW 12:47:04 58° NW 12:52:06 10° NNE
Cosmos 1980 Rocket 3.2 12:45:36 21° W 12:47:30 25° WNW 12:52:03 10° N
BREEZE-M DEB (TANK) 3.6 12:45:27 10° SSW 12:47:46 38° SE 12:52:46 10° ENE
COSMO-SKYMED 1 2.4 12:46:19 10° SSE 12:50:25 87° ENE 12:54:32 10° NNW
GP-B 3.2 12:46:53 10° N 12:51:16 76° E 12:55:36 10° S
USA 215 4.5 12:46:45 10° E 12:52:38 36° NE 12:58:30 10° NNW
FALCON 9 R/B 0.1 12:53:08 24° W 12:54:28 89° WSW 12:56:41 10° E
Cosmos 1300 Rocket 3.7 12:53:36 10° SSW 12:57:50 51° W 13:02:09 10° N
Cosmos 1153 Rocket 4.5 12:54:21 10° SSW 13:00:41 67° W 13:06:57 10° N
Cosmos 1602 3.9 12:58:17 10° N 13:00:59 48° E 13:03:40 10° SSE
Cosmos 1447 Rocket 4.5 12:55:56 10° N 13:02:09 71° W 13:08:23 10° S
ISS -2.2 13:06:08 15° WNW 13:07:53 21° NNW 13:10:31 10° NNE
MOS 1 Rocket 3.8 13:03:40 10° NNE 13:08:02 60° E 13:12:36 10° S
Cosmos 2278 3.8 13:04:35 10° SSW 13:10:12 81° ESE 13:15:52 10° NNE
IRS-1D 4.5 13:10:04 10° NNW 13:14:15 25° WNW 13:18:21 10° WSW
Cosmos 1484 Rocket 2.5 13:12:46 10° N 13:16:14 61° WNW 13:19:39 10° SSW
Cosmos 2360 Rocket 3.2 13:11:46 10° S 13:17:11 53° ESE 13:22:38 10° NNE
Aureole 1 Rocket 4.5 13:18:31 10° SW 13:25:37 49° WNW 13:32:06 10° N
Cosmos 2219 3.4 13:20:19 10° NNW 13:25:50 52° WSW 13:31:16 10° S
Cosmos 1538 Rocket 4.4 13:21:46 10° NNW 13:27:04 71° ENE 13:32:14 10° SSE
Cosmos 1459 Rocket 3.9 13:26:51 10° SSW 13:32:49 65° W 13:38:50 10° N
